| time (UTC) | temp F | wind direction | speed MPH | gust MPH | rain 1hr in | rain 24hr in | rain mn in | humidity % | barometer mb |
| 20260503043449 | 77 | 267 | 1.0 | 4.0 | 0.00 | 0.00 | 0.00 | ||
| 20260503042947 | 76 | 226 | 3.0 | 7.0 | 0.00 | 0.00 | 0.00 | ||
| 20260503042447 | 76 | 263 | 2.0 | 6.0 | 0.00 | 0.00 | 0.00 | ||
| 20260503041946 | 76 | 280 | 2.0 | 4.0 | 0.00 | 0.00 | 0.00 | ||
| 20260503041446 | 77 | 245 | 1.0 | 4.0 | 0.00 | 0.00 | 0.00 | ||
| 20260503040946 | 77 | 269 | 2.0 | 4.0 | 0.00 | 0.00 | 0.00 | ||
| 20260503040445 | 77 | 222 | 2.0 | 4.0 | 0.00 | 0.00 | 0.00 | ||
| 20260503035945 | 78 | 235 | 2.0 | 4.0 | 0.00 | 0.00 | 0.00 | ||
| 20260503034945 | 78 | 262 | 1.0 | 3.0 | 0.00 | 0.00 | 0.00 | ||
| 20260503034444 | 78 | 270 | 3.0 | 6.0 | 0.00 | 0.00 | 0.00 | ||
| 20260503033942 | 78 | 259 | 2.0 | 4.0 | 0.00 | 0.00 | 0.00 | ||
| 20260503033442 | 79 | 266 | 3.0 | 7.0 | 0.00 | 0.00 | 0.00 | ||
| 20260503032941 | 79 | 269 | 2.0 | 5.0 | 0.00 | 0.00 | 0.00 | ||
| 20260503032441 | 79 | 285 | 3.0 | 5.0 | 0.00 | 0.00 | 0.00 | ||
| 20260503031941 | 79 | 218 | 2.0 | 5.0 | 0.00 | 0.00 | 0.00 | ||
| 20260503031441 | 79 | 283 | 2.0 | 6.0 | 0.00 | 0.00 | 0.00 | ||
| 20260503030941 | 79 | 255 | 3.0 | 6.0 | 0.00 | 0.00 | 0.00 | ||
| 20260503030440 | 79 | 264 | 4.0 | 8.0 | 0.00 | 0.00 | 0.00 | ||
| 20260503025940 | 79 | 291 | 3.0 | 7.0 | 0.00 | 0.00 | 0.00 | ||
| 20260503025440 | 79 | 260 | 4.0 | 7.0 | 0.00 | 0.00 | 0.00 | ||
| 20260503024940 | 79 | 233 | 3.0 | 5.0 | 0.00 | 0.00 | 0.00 | ||
| 20260503024439 | 79 | 264 | 3.0 | 5.0 | 0.00 | 0.00 | 0.00 | ||
| 20260503023939 | 79 | 263 | 3.0 | 8.0 | 0.00 | 0.00 | 0.00 | ||
| 20260503023436 | 80 | 255 | 3.0 | 5.0 | 0.00 | 0.00 | 0.00 | ||
| 20260503022935 | 80 | 278 | 4.0 | 8.0 | 0.00 | 0.00 | 0.00 | ||
| 20260503022435 | 80 | 248 | 3.0 | 7.0 | 0.00 | 0.00 | 0.00 | ||
| 20260503021935 | 80 | 263 | 3.0 | 6.0 | 0.00 | 0.00 | 0.00 | ||
| 20260503021435 | 80 | 271 | 3.0 | 5.0 | 0.00 | 0.00 | 0.00 | ||
| 20260503020935 | 80 | 224 | 3.0 | 7.0 | 0.00 | 0.00 | 0.00 | ||
| 20260503020434 | 80 | 214 | 3.0 | 6.0 | 0.00 | 0.00 | 0.00 | ||
| 20260503015934 | 80 | 205 | 4.0 | 7.0 | 0.00 | 0.00 | 0.00 | ||
| 20260503015430 | 80 | 269 | 3.0 | 7.0 | 0.00 | 0.00 | 0.00 | ||
| 20260503014930 | 80 | 278 | 4.0 | 7.0 | 0.00 | 0.00 | 0.00 | ||
| 20260503014430 | 81 | 233 | 4.0 | 8.0 | 0.00 | 0.00 | 0.00 | ||
| 20260503014227 | 81 | 263 | 4.0 | 9.0 | 0.00 | 0.00 | 0.00 | ||
| 20260503014221 | 81 | 242 | 4.0 | 8.0 | 0.00 | 0.00 | 0.00 | ||
| 20260503014150 | 81 | 236 | 4.0 | 10.0 | 0.00 | 0.00 | 0.00 | ||
| 20260503013931 | 81 | 242 | 4.0 | 8.0 | 0.00 | 0.00 | 0.00 | ||
| 20260503012429 | 81 | 242 | 5.0 | 10.0 | 0.00 | 0.00 | 0.00 | ||
| 20260503011929 | 81 | 242 | 4.0 | 7.0 | 0.00 | 0.00 | 0.00 | ||
| 20260503010928 | 82 | 270 | 4.0 | 11.0 | 0.00 | 0.00 | 0.00 | ||
| 20260503010428 | 82 | 274 | 4.0 | 8.0 | 0.00 | 0.00 | 0.00 | ||
| 20260503005928 | 82 | 215 | 4.0 | 7.0 | 0.00 | 0.00 | 0.00 | ||
| 20260503005429 | 82 | 253 | 4.0 | 8.0 | 0.00 | 0.00 | 0.00 | ||
| 20260503004927 | 82 | 271 | 4.0 | 8.0 | 0.00 | 0.00 | 0.00 | ||
| 20260503004424 | 82 | 259 | 4.0 | 8.0 | 0.00 | 0.00 | 0.00 | ||
| 20260503003924 | 83 | 240 | 4.0 | 10.0 | 0.00 | 0.00 | 0.00 | ||
| 20260503003424 | 83 | 245 | 6.0 | 9.0 | 0.00 | 0.00 | 0.00 | ||
| 20260503002924 | 83 | 250 | 4.0 | 6.0 | 0.00 | 0.00 | 0.00 | ||
| 20260503002424 | 83 | 250 | 4.0 | 8.0 | 0.00 | 0.00 | 0.00 | ||
| 20260503001923 | 83 | 260 | 3.0 | 9.0 | 0.00 | 0.00 | 0.00 | ||
| 20260503001423 | 84 | 264 | 3.0 | 7.0 | 0.00 | 0.00 | 0.00 | ||
| 20260503000923 | 84 | 259 | 3.0 | 8.0 | 0.00 | 0.00 | 0.00 | ||
| 20260503000423 | 83 | 238 | 4.0 | 9.0 | 0.00 | 0.00 | 0.00 | ||
| 20260502235922 | 83 | 281 | 4.0 | 9.0 | 0.00 | 0.00 | 0.00 | ||
| 20260502235422 | 83 | 260 | 5.0 | 10.0 | 0.00 | 0.00 | 0.00 | ||
| 20260502234921 | 84 | 262 | 3.0 | 10.0 | 0.00 | 0.00 | 0.00 | ||
| 20260502234420 | 84 | 260 | 5.0 | 12.0 | 0.00 | 0.00 | 0.00 | ||
| 20260502233920 | 84 | 263 | 5.0 | 8.0 | 0.00 | 0.00 | 0.00 | ||
| 20260502233420 | 84 | 259 | 5.0 | 11.0 | 0.00 | 0.00 | 0.00 | ||
| 20260502232918 | 84 | 266 | 3.0 | 8.0 | 0.00 | 0.00 | 0.00 | ||
| 20260502232418 | 85 | 253 | 2.0 | 6.0 | 0.00 | 0.00 | 0.00 | ||
| 20260502231920 | 85 | 256 | 4.0 | 9.0 | 0.00 | 0.00 | 0.00 | ||
| 20260502231421 | 86 | 260 | 4.0 | 10.0 | 0.00 | 0.00 | 0.00 | ||
| 20260502230917 | 85 | 259 | 2.0 | 7.0 | 0.00 | 0.00 | 0.00 | ||
| 20260502230417 | 86 | 255 | 5.0 | 10.0 | 0.00 | 0.00 | 0.00 | ||
| 20260502225917 | 86 | 255 | 3.0 | 8.0 | 0.00 | 0.00 | 0.00 | ||
| 20260502225416 | 86 | 285 | 3.0 | 7.0 | 0.00 | 0.00 | 0.00 | ||
| 20260502224916 | 86 | 264 | 4.0 | 9.0 | 0.00 | 0.00 | 0.00 | ||
| 20260502224416 | 87 | 267 | 4.0 | 10.0 | 0.00 | 0.00 | 0.00 | ||
| 20260502223914 | 87 | 259 | 5.0 | 12.0 | 0.00 | 0.00 | 0.00 | ||
| 20260502222412 | 88 | 243 | 4.0 | 11.0 | 0.00 | 0.00 | 0.00 | ||
| 20260502221912 | 88 | 260 | 4.0 | 10.0 | 0.00 | 0.00 | 0.00 | ||
| 20260502221411 | 88 | 263 | 4.0 | 11.0 | 0.00 | 0.00 | 0.00 | ||
| 20260502220911 | 88 | 284 | 5.0 | 10.0 | 0.00 | 0.00 | 0.00 | ||
| 20260502220411 | 88 | 259 | 6.0 | 12.0 | 0.00 | 0.00 | 0.00 | ||
| 20260502215911 | 88 | 218 | 4.0 | 10.0 | 0.00 | 0.00 | 0.00 | ||
| 20260502215410 | 88 | 249 | 6.0 | 15.0 | 0.00 | 0.00 | 0.00 | ||
| 20260502214910 | 89 | 212 | 5.0 | 15.0 | 0.00 | 0.00 | 0.00 | ||
| 20260502214410 | 89 | 232 | 4.0 | 9.0 | 0.00 | 0.00 | 0.00 | ||
| 20260502213910 | 89 | 264 | 5.0 | 12.0 | 0.00 | 0.00 | 0.00 | ||
| 20260502213410 | 89 | 235 | 4.0 | 8.0 | 0.00 | 0.00 | 0.00 | ||
| 20260502212909 | 89 | 271 | 6.0 | 13.0 | 0.00 | 0.00 | 0.00 | ||
| 20260502212409 | 89 | 252 | 5.0 | 11.0 | 0.00 | 0.00 | 0.00 | ||
| 20260502211909 | 90 | 246 | 5.0 | 11.0 | 0.00 | 0.00 | 0.00 | ||
| 20260502211409 | 91 | 255 | 4.0 | 9.0 | 0.00 | 0.00 | 0.00 | ||
| 20260502210907 | 91 | 232 | 6.0 | 14.0 | 0.00 | 0.00 | 0.00 | ||
| 20260502210407 | 92 | 257 | 5.0 | 12.0 | 0.00 | 0.00 | 0.00 | ||
| 20260502205907 | 92 | 250 | 6.0 | 12.0 | 0.00 | 0.00 | 0.00 | ||
| 20260502205407 | 92 | 256 | 5.0 | 12.0 | 0.00 | 0.00 | 0.00 | ||
| 20260502204906 | 92 | 253 | 6.0 | 15.0 | 0.00 | 0.00 | 0.00 | ||
| 20260502204403 | 93 | 215 | 6.0 | 18.0 | 0.00 | 0.00 | 0.00 | ||
| 20260502203903 | 93 | 280 | 5.0 | 12.0 | 0.00 | 0.00 | 0.00 | ||
| 20260502203402 | 93 | 228 | 6.0 | 14.0 | 0.00 | 0.00 | 0.00 | ||
| 20260502202902 | 92 | 262 | 5.0 | 14.0 | 0.00 | 0.00 | 0.00 | ||
| 20260502202402 | 91 | 252 | 5.0 | 11.0 | 0.00 | 0.00 | 0.00 | ||
| 20260502201902 | 92 | 267 | 8.0 | 21.0 | 0.00 | 0.00 | 0.00 | ||
| 20260502200901 | 93 | 274 | 4.0 | 12.0 | 0.00 | 0.00 | 0.00 | ||
| 20260502200401 | 94 | 264 | 6.0 | 14.0 | 0.00 | 0.00 | 0.00 | ||
| 20260502195901 | 94 | 193 | 7.0 | 15.0 | 0.00 | 0.00 | 0.00 | ||
| 20260502195358 | 94 | 262 | 6.0 | 18.0 | 0.00 | 0.00 | 0.00 | ||
| 20260502194858 | 94 | 257 | 6.0 | 17.0 | 0.00 | 0.00 | 0.00 | ||
| 20260502193857 | 94 | 262 | 6.0 | 12.0 | 0.00 | 0.00 | 0.00 | ||
| 20260502193357 | 94 | 278 | 7.0 | 14.0 | 0.00 | 0.00 | 0.00 | ||
| 20260502192857 | 92 | 262 | 5.0 | 11.0 | 0.00 | 0.00 | 0.00 | ||
| 20260502192356 | 93 | 215 | 8.0 | 19.0 | 0.00 | 0.00 | 0.00 | ||
| 20260502191856 | 94 | 269 | 7.0 | 14.0 | 0.00 | 0.00 | 0.00 | ||
| 20260502191356 | 95 | 236 | 6.0 | 14.0 | 0.00 | 0.00 | 0.00 | ||
| 20260502190856 | 94 | 270 | 7.0 | 21.0 | 0.00 | 0.00 | 0.00 | ||
| 20260502190356 | 94 | 211 | 7.0 | 13.0 | 0.00 | 0.00 | 0.00 | ||
| 20260502185855 | 93 | 257 | 6.0 | 12.0 | 0.00 | 0.00 | 0.00 | ||
| 20260502185355 | 93 | 193 | 8.0 | 16.0 | 0.00 | 0.00 | 0.00 | ||
| 20260502184855 | 92 | 271 | 6.0 | 14.0 | 0.00 | 0.00 | 0.00 | ||
| 20260502184355 | 91 | 243 | 8.0 | 19.0 | 0.00 | 0.00 | 0.00 | ||
| 20260502183854 | 91 | 225 | 7.0 | 14.0 | 0.00 | 0.00 | 0.00 | ||
| 20260502183353 | 92 | 215 | 5.0 | 14.0 | 0.00 | 0.00 | 0.00 | ||
| 20260502182852 | 91 | 222 | 5.0 | 10.0 | 0.00 | 0.00 | 0.00 | ||
| 20260502182351 | 92 | 280 | 7.0 | 15.0 | 0.00 | 0.00 | 0.00 | ||
| 20260502181850 | 92 | 231 | 6.0 | 14.0 | 0.00 | 0.00 | 0.00 | ||
| 20260502181350 | 91 | 221 | 6.0 | 12.0 | 0.00 | 0.00 | 0.00 | ||
| 20260502180850 | 92 | 236 | 6.0 | 14.0 | 0.00 | 0.00 | 0.00 | ||
| 20260502180349 | 92 | 228 | 5.0 | 11.0 | 0.00 | 0.00 | 0.00 | ||
| 20260502170342 | 93 | 264 | 6.0 | 11.0 | 0.00 | 0.00 | 0.00 | ||
| 20260502164333 | 92 | 204 | 6.0 | 15.0 | 0.00 | 0.00 | 0.00 | ||
| 20260502163832 | 93 | 256 | 5.0 | 12.0 | 0.00 | 0.00 | 0.00 | ||
| 20260502162830 | 93 | 231 | 5.0 | 11.0 | 0.00 | 0.00 | 0.00 | ||
| 20260502162329 | 92 | 212 | 5.0 | 10.0 | 0.00 | 0.00 | 0.00 | ||
| 20260502161829 | 92 | 245 | 5.0 | 10.0 | 0.00 | 0.00 | 0.00 | ||
| 20260502161329 | 93 | 146 | 7.0 | 14.0 | 0.00 | 0.00 | 0.00 | ||
| 20260502160829 | 93 | 228 | 5.0 | 12.0 | 0.00 | 0.00 | 0.00 | ||
| 20260502160328 | 92 | 229 | 7.0 | 13.0 | 0.00 | 0.00 | 0.00 | ||
| 20260502152327 | 90 | 155 | 4.0 | 10.0 | 0.00 | 0.00 | 0.00 | ||
| 20260502151826 | 89 | 210 | 5.0 | 12.0 | 0.00 | 0.00 | 0.00 | ||
| 20260502151326 | 89 | 228 | 5.0 | 9.0 | 0.00 | 0.00 | 0.00 | ||
| 20260502150826 | 89 | 195 | 5.0 | 10.0 | 0.00 | 0.00 | 0.00 | ||
| 20260502150326 | 89 | 273 | 6.0 | 12.0 | 0.00 | 0.00 | 0.00 | ||
| 20260502130312 | 81 | 187 | 5.0 | 10.0 | 0.00 | 0.00 | 0.00 | ||
| 20260502123811 | 80 | 263 | 3.0 | 7.0 | 0.00 | 0.00 | 0.00 | ||
| 20260502123310 | 79 | 219 | 1.0 | 3.0 | 0.00 | 0.00 | 0.00 | ||
| 20260502122809 | 78 | 169 | 1.0 | 3.0 | 0.00 | 0.00 | 0.00 | ||
| 20260502122306 | 78 | 201 | 1.0 | 4.0 | 0.00 | 0.00 | 0.00 | ||
| 20260502121806 | 78 | 201 | 1.0 | 3.0 | 0.00 | 0.00 | 0.00 | ||
| 20260502121306 | 76 | 218 | 1.0 | 3.0 | 0.00 | 0.00 | 0.00 | ||
| 20260502121009 | 77 | 205 | 1.0 | 3.0 | 0.00 | 0.00 | 0.00 | ||
| 20260502120804 | 77 | 205 | 1.0 | 3.0 | 0.00 | 0.00 | 0.00 | ||
| 20260502120303 | 76 | 0 | 0.0 | 0.0 | 0.00 | 0.00 | 0.00 | ||
| 20260502115803 | 76 | 0 | 0.0 | 0.0 | 0.00 | 0.00 | 0.00 | ||
| 20260502115305 | 75 | 0 | 0.0 | 0.0 | 0.00 | 0.00 | 0.00 | ||
| 20260502115220 | 75 | 0 | 0.0 | 0.0 | 0.00 | 0.00 | 0.00 | ||
| 20260502114803 | 75 | 0 | 0.0 | 0.0 | 0.00 | 0.00 | 0.00 | ||
| 20260502114302 | 74 | 0 | 0.0 | 0.0 | 0.00 | 0.00 | 0.00 | ||
| 20260502113801 | 74 | 0 | 0.0 | 0.0 | 0.00 | 0.00 | 0.00 | ||
| 20260502113301 | 74 | 0 | 0.0 | 0.0 | 0.00 | 0.00 | 0.00 | ||
| 20260502111759 | 73 | 0 | 0.0 | 0.0 | 0.00 | 0.00 | 0.00 | ||
| 20260502111258 | 73 | 304 | 0.0 | 0.0 | 0.00 | 0.00 | 0.00 | ||
| 20260502110758 | 73 | 0 | 0.0 | 0.0 | 0.00 | 0.00 | 0.00 | ||
| 20260502110258 | 73 | 0 | 0.0 | 0.0 | 0.00 | 0.00 | 0.00 | ||
| 20260502105758 | 73 | 0 | 0.0 | 0.0 | 0.00 | 0.00 | 0.00 | ||
| 20260502105257 | 73 | 0 | 0.0 | 0.0 | 0.00 | 0.00 | 0.00 | ||
| 20260502105140 | 73 | 0 | 0.0 | 0.0 | 0.00 | 0.00 | 0.00 | ||
| 20260502104754 | 73 | 0 | 0.0 | 0.0 | 0.00 | 0.00 | 0.00 | ||
| 20260502104254 | 73 | 0 | 0.0 | 0.0 | 0.00 | 0.00 | 0.00 | ||
| 20260502103754 | 73 | 0 | 0.0 | 0.0 | 0.00 | 0.00 | 0.00 | ||
| 20260502103253 | 73 | 0 | 0.0 | 0.0 | 0.00 | 0.00 | 0.00 | ||
| 20260502102753 | 73 | 0 | 0.0 | 0.0 | 0.00 | 0.00 | 0.00 | ||
| 20260502102252 | 73 | 0 | 0.0 | 0.0 | 0.00 | 0.00 | 0.00 | ||
| 20260502101751 | 73 | 0 | 0.0 | 0.0 | 0.00 | 0.00 | 0.00 | ||
| 20260502101251 | 74 | 0 | 0.0 | 0.0 | 0.00 | 0.00 | 0.00 | ||
| 20260502100751 | 74 | 0 | 0.0 | 0.0 | 0.00 | 0.00 | 0.00 | ||
| 20260502100251 | 73 | 0 | 0.0 | 0.0 | 0.00 | 0.00 | 0.00 | ||
| 20260502100143 | 74 | 0 | 0.0 | 0.0 | 0.00 | 0.00 | 0.00 | ||
| 20260502091237 | 73 | 0 | 0.0 | 0.0 | 0.00 | 0.00 | 0.00 | ||
| 20260502090735 | 73 | 0 | 0.0 | 0.0 | 0.00 | 0.00 | 0.00 | ||
| 20260502090235 | 73 | 0 | 0.0 | 0.0 | 0.00 | 0.00 | 0.00 | ||
| 20260502070218 | 73 | 0 | 0.0 | 0.0 | 0.00 | 0.00 | 0.00 | ||
| 20260502065212 | 73 | 0 | 0.0 | 0.0 | 0.00 | 0.00 | 0.00 | ||
| 20260502064711 | 73 | 0 | 0.0 | 0.0 | 0.00 | 0.00 | 0.00 | ||
| 20260502064208 | 73 | 0 | 0.0 | 0.0 | 0.00 | 0.00 | 0.00 | ||
| 20260502063707 | 73 | 0 | 0.0 | 0.0 | 0.00 | 0.00 | 0.00 | ||
| 20260502062702 | 72 | 0 | 0.0 | 0.0 | 0.00 | 0.00 | 0.00 | ||
| 20260502062159 | 73 | 0 | 0.0 | 0.0 | 0.00 | 0.00 | 0.00 | ||
| 20260502061659 | 73 | 0 | 0.0 | 0.0 | 0.00 | 0.00 | 0.00 | ||
| 20260502061156 | 73 | 248 | 0.0 | 1.0 | 0.00 | 0.00 | 0.00 | ||
| 20260502060656 | 73 | 0 | 0.0 | 0.0 | 0.00 | 0.00 | 0.00 | ||
| 20260502060152 | 73 | 0 | 0.0 | 0.0 | 0.00 | 0.00 | 0.00 | ||
| 20260502055652 | 73 | 0 | 0.0 | 0.0 | 0.00 | 0.00 | 0.00 | ||
| 20260502055152 | 73 | 0 | 0.0 | 0.0 | 0.00 | 0.00 | 0.00 | ||
| 20260502054645 | 73 | 0 | 0.0 | 0.0 | 0.00 | 0.00 | 0.00 | ||
| 20260502054141 | 73 | 0 | 0.0 | 0.0 | 0.00 | 0.00 | 0.00 | ||
| 20260502052634 | 73 | 262 | 0.0 | 1.0 | 0.00 | 0.00 | 0.00 | ||
| 20260502052134 | 74 | 0 | 0.0 | 0.0 | 0.00 | 0.00 | 0.00 | ||
| 20260502051129 | 74 | 0 | 0.0 | 0.0 | 0.00 | 0.00 | 0.00 | ||
| 20260502050625 | 74 | 0 | 0.0 | 0.0 | 0.00 | 0.00 | 0.00 | ||
| 20260502050122 | 74 | 0 | 0.0 | 0.0 | 0.00 | 0.00 | 0.00 | ||
| 20260502045617 | 74 | 0 | 0.0 | 0.0 | 0.00 | 0.00 | 0.00 | ||
| 20260502045116 | 74 | 262 | 0.0 | 1.0 | 0.00 | 0.00 | 0.00 | ||
| 20260502044616 | 74 | 0 | 0.0 | 0.0 | 0.00 | 0.00 | 0.00 |